Stündliche Wetter Abaturovo

Heute, 27 Februar, Samstag

Zeit Temperatur Niederschläge Wind Luftdruck Luftfeuchtigkeit
00:00 -4°C° 0.4 mm 6 m/S 738 mmHg 93%
01:00 -5°C° 0.4 mm 6 m/S 739 mmHg 90%
02:00 -8°C° 0 mm 6 m/S 739 mmHg 88%
03:00 -10°C° 0 mm 5 m/S 739 mmHg 89%
04:00 -11°C° 0 mm 4 m/S 740 mmHg 89%
05:00 -12°C° 0 mm 3 m/S 741 mmHg 90%
06:00 -13°C° 0 mm 3 m/S 741 mmHg 89%
07:00 -13°C° 0 mm 3 m/S 742 mmHg 89%
08:00 -12°C° 0 mm 2 m/S 743 mmHg 90%
09:00 -10°C° 0 mm 2 m/S 743 mmHg 88%
10:00 -9°C° 0 mm 2 m/S 744 mmHg 86%
11:00 -8°C° 0 mm 2 m/S 744 mmHg 84%
12:00 -7°C° 0 mm 2 m/S 745 mmHg 85%
13:00 -6°C° 0 mm 2 m/S 745 mmHg 86%
14:00 -5°C° 0 mm 2 m/S 745 mmHg 91%
15:00 -5°C° 0.1 mm 2 m/S 746 mmHg 92%
16:00 -5°C° 0.1 mm 2 m/S 746 mmHg 94%
17:00 -3°C° 0.1 mm 1 m/S 746 mmHg 96%
18:00 -3°C° 0.1 mm 1 m/S 747 mmHg 97%
19:00 -3°C° 0.1 mm 1 m/S 747 mmHg 97%
20:00 -3°C° 0.1 mm 1 m/S 748 mmHg 97%
21:00 -3°C° 0.1 mm 1 m/S 748 mmHg 97%
22:00 -3°C° 0.1 mm 1 m/S 748 mmHg 97%
23:00 -2°C° 0.1 mm 1 m/S 748 mmHg 97%

Morgen, 28 Februar, Sonntag

Zeit Temperatur Niederschläge Wind Luftdruck Luftfeuchtigkeit
00:00 -3°C° 0.1 mm 1 m/S 748 mmHg 97%
01:00 -3°C° 0.1 mm 1 m/S 748 mmHg 97%
02:00 -3°C° 0.1 mm 1 m/S 748 mmHg 97%
03:00 -3°C° 0.1 mm 1 m/S 748 mmHg 97%
04:00 -5°C° 0.1 mm 2 m/S 748 mmHg 97%
05:00 -5°C° 0.1 mm 2 m/S 748 mmHg 97%
06:00 -5°C° 0 mm 2 m/S 748 mmHg 96%
07:00 -5°C° 0 mm 2 m/S 748 mmHg 96%
08:00 -5°C° 0 mm 2 m/S 748 mmHg 96%
09:00 -2°C° 0 mm 1 m/S 748 mmHg 94%
10:00 -1°C° 0 mm 1 m/S 748 mmHg 92%
11:00 0°C° 0 mm 1 m/S 748 mmHg 90%
12:00 0°C° 0.1 mm 1 m/S 749 mmHg 89%
13:00 +1°C° 0.1 mm 1 m/S 749 mmHg 88%
14:00 +1°C° 0.1 mm 1 m/S 749 mmHg 87%
15:00 0°C° 0 mm 1 m/S 749 mmHg 89%
16:00 -2°C° 0 mm 0 m/S 749 mmHg 90%
17:00 -3°C° 0 mm 0 m/S 749 mmHg 92%
18:00 -4°C° 0 mm 0 m/S 750 mmHg 93%
19:00 -4°C° 0 mm 0 m/S 751 mmHg 93%
20:00 -5°C° 0 mm 0 m/S 751 mmHg 94%
21:00 -5°C° 0 mm 0 m/S 752 mmHg 94%
22:00 -5°C° 0 mm 0 m/S 752 mmHg 95%
23:00 -4°C° 0 mm 1 m/S 752 mmHg 95%

übermorgen, 1 März, Montag

Zeit Temperatur Niederschläge Wind Luftdruck Luftfeuchtigkeit
00:00 -6°C° 0 mm 1 m/S 753 mmHg 94%
01:00 -6°C° 0 mm 1 m/S 753 mmHg 94%
02:00 -7°C° 0 mm 1 m/S 753 mmHg 94%
03:00 -7°C° 0 mm 1 m/S 753 mmHg 94%
04:00 -7°C° 0 mm 1 m/S 753 mmHg 94%
05:00 -7°C° 0 mm 1 m/S 753 mmHg 94%
06:00 -6°C° 0 mm 1 m/S 753 mmHg 94%
07:00 -6°C° 0 mm 2 m/S 754 mmHg 94%
08:00 -5°C° 0 mm 2 m/S 754 mmHg 94%
09:00 -4°C° 0 mm 2 m/S 753 mmHg 94%
10:00 -4°C° 0 mm 3 m/S 753 mmHg 94%
11:00 -1°C° 0 mm 3 m/S 753 mmHg 94%
12:00 -2°C° 0 mm 4 m/S 752 mmHg 93%
13:00 -2°C° 0 mm 4 m/S 752 mmHg 92%
14:00 -1°C° 0 mm 4 m/S 752 mmHg 91%
15:00 -1°C° 0 mm 4 m/S 751 mmHg 91%
16:00 -1°C° 0 mm 4 m/S 750 mmHg 91%
17:00 -1°C° 0 mm 5 m/S 749 mmHg 92%
18:00 -1°C° 0 mm 4 m/S 749 mmHg 92%
19:00 -1°C° 0 mm 4 m/S 748 mmHg 91%
20:00 -1°C° 0 mm 4 m/S 748 mmHg 91%
21:00 -1°C° 0 mm 5 m/S 747 mmHg 91%
22:00 -1°C° 0 mm 5 m/S 746 mmHg 91%
23:00 -1°C° 0 mm 5 m/S 746 mmHg 91%

2 März, Dienstag

Zeit Temperatur Niederschläge Wind Luftdruck Luftfeuchtigkeit
00:00 -1°C° 0 mm 5 m/S 745 mmHg 93%
01:00 -1°C° 0 mm 5 m/S 745 mmHg 94%
02:00 -1°C° 0 mm 5 m/S 744 mmHg 96%
03:00 -1°C° 0.1 mm 5 m/S 744 mmHg 94%
04:00 -2°C° 0.1 mm 5 m/S 744 mmHg 92%
05:00 -2°C° 0.1 mm 5 m/S 744 mmHg 90%
06:00 -2°C° 0 mm 5 m/S 744 mmHg 88%
07:00 -2°C° 0 mm 5 m/S 744 mmHg 86%
08:00 -2°C° 0 mm 5 m/S 744 mmHg 84%
09:00 -3°C° 0 mm 6 m/S 745 mmHg 83%
10:00 -3°C° 0 mm 6 m/S 745 mmHg 83%
11:00 -3°C° 0 mm 6 m/S 745 mmHg 82%
12:00 -3°C° 0 mm 6 m/S 745 mmHg 82%
13:00 -3°C° 0 mm 6 m/S 745 mmHg 82%
14:00 -3°C° 0 mm 6 m/S 745 mmHg 82%
15:00 -3°C° 0.1 mm 6 m/S 746 mmHg 85%
16:00 -3°C° 0.1 mm 6 m/S 746 mmHg 87%
17:00 -4°C° 0.1 mm 5 m/S 746 mmHg 90%
18:00 -4°C° 0.1 mm 5 m/S 746 mmHg 90%
19:00 -4°C° 0.1 mm 5 m/S 746 mmHg 90%
20:00 -4°C° 0.1 mm 4 m/S 747 mmHg 90%
21:00 -4°C° 0 mm 4 m/S 747 mmHg 90%
22:00 -4°C° 0 mm 4 m/S 747 mmHg 89%
23:00 -5°C° 0 mm 4 m/S 748 mmHg 89%

3 März, Mittwoch

Zeit Temperatur Niederschläge Wind Luftdruck Luftfeuchtigkeit
00:00 -5°C° 0 mm 4 m/S 748 mmHg 89%
01:00 -5°C° 0 mm 4 m/S 748 mmHg 89%
02:00 -5°C° 0 mm 4 m/S 749 mmHg 88%
03:00 -7°C° 0 mm 4 m/S 749 mmHg 89%
04:00 -8°C° 0 mm 4 m/S 749 mmHg 89%
05:00 -7°C° 0 mm 3 m/S 749 mmHg 90%
06:00 -8°C° 0 mm 4 m/S 750 mmHg 90%
07:00 -7°C° 0 mm 4 m/S 750 mmHg 91%
08:00 -6°C° 0 mm 5 m/S 750 mmHg 92%
09:00 -6°C° 0.1 mm 5 m/S 751 mmHg 88%
10:00 -5°C° 0.1 mm 5 m/S 751 mmHg 84%
11:00 -4°C° 0.1 mm 5 m/S 751 mmHg 80%
12:00 -4°C° 0 mm 5 m/S 751 mmHg 79%
13:00 -3°C° 0 mm 4 m/S 752 mmHg 77%
14:00 -3°C° 0 mm 4 m/S 752 mmHg 76%
15:00 -2°C° 0 mm 3 m/S 751 mmHg 80%
16:00 -4°C° 0 mm 3 m/S 751 mmHg 83%
17:00 -4°C° 0 mm 2 m/S 751 mmHg 87%
18:00 -4°C° 0 mm 2 m/S 751 mmHg 89%
19:00 -5°C° 0 mm 2 m/S 751 mmHg 90%
20:00 -5°C° 0 mm 2 m/S 752 mmHg 92%
21:00 -5°C° 0 mm 2 m/S 751 mmHg 93%
22:00 -6°C° 0 mm 2 m/S 751 mmHg 94%
23:00 -6°C° 0 mm 2 m/S 751 mmHg 95%

4 März, Donnerstag

Zeit Temperatur Niederschläge Wind Luftdruck Luftfeuchtigkeit
00:00 -6°C° 0 mm 2 m/S 750 mmHg 95%
01:00 -6°C° 0 mm 2 m/S 750 mmHg 95%
02:00 -6°C° 0 mm 2 m/S 749 mmHg 95%
03:00 -7°C° 0 mm 3 m/S 749 mmHg 95%
04:00 -6°C° 0 mm 3 m/S 748 mmHg 94%
05:00 -6°C° 0 mm 3 m/S 747 mmHg 93%
06:00 -7°C° 0 mm 4 m/S 747 mmHg 92%
07:00 -5°C° 0 mm 4 m/S 746 mmHg 90%
08:00 -5°C° 0 mm 4 m/S 745 mmHg 89%
09:00 -4°C° 0 mm 4 m/S 745 mmHg 89%
10:00 -4°C° 0 mm 5 m/S 744 mmHg 89%
11:00 -2°C° 0 mm 5 m/S 743 mmHg 89%
12:00 -1°C° 0 mm 5 m/S 742 mmHg 87%
13:00 -1°C° 0 mm 5 m/S 742 mmHg 85%
14:00 -1°C° 0 mm 6 m/S 741 mmHg 83%
15:00 0°C° 0 mm 5 m/S 740 mmHg 85%
16:00 0°C° 0 mm 5 m/S 740 mmHg 86%
17:00 -1°C° 0 mm 5 m/S 739 mmHg 87%
18:00 -1°C° 0 mm 4 m/S 739 mmHg 89%
19:00 -1°C° 0 mm 4 m/S 739 mmHg 92%
20:00 -2°C° 0 mm 4 m/S 739 mmHg 94%
21:00 -2°C° 0 mm 4 m/S 739 mmHg 93%
22:00 -2°C° 0 mm 4 m/S 739 mmHg 93%
23:00 -3°C° 0 mm 4 m/S 739 mmHg 92%
Mehr zeigen

Wir brauchen deine Erlaubnis

Meteoprog und unser Service Anbieter werden persönliche Daten aufbewahren, so wie Cookies, Geräte Bezeichnung oder ähnliche Technologien von deinem Gerät und Prozess, so wie Persönliche Daten Inhalte und Werbungen, genauso wie social Media und den Verkehr zu analysieren.

  • Aufbewahrung und/oder Zugang zu deiner Geräte Informationen.

    Cookies, Geräte Bezeichnung oder andere Informationen, können aufbewahrt oder Zugang zu deinem Gerät erhalten, für den Grund, der oben angegeben wird.

  • Personalisierte Werbung und Inhalte, Messungen, Einblick in das Publikum und Produkt Entwicklung.

    Werbungen und Inhalte können personalisiert werden, basierend auf ein Profil. Mehr Daten können besser personalisierte Werbungen und Inhalte hinzufügen. Werbung und Inhalte können gezeigt und gemessen werden. Einblicke über das Publikum, welche die Werbung gesehen haben und den Inhalt, können abgeleitet werden. So wie Daten können genutzt werden, um es zu verbessern oder die Benutzer Erfahrung zu verbessern das System und die Software.

Wenn du “Ich stimme zu” klickst, erlaubst du uns, die Cookies zu benutzen die Geräte Bezeichnung, den Web oder ähnliche Technologien zu benutzen. Deine Settings, können in deinem Gerät bei deinem Browser geändert werden.

Für den bestimmten Zweck, berechtigten Interessen beruhen darauf, mehr als auf den Inhalt. Du kannst mehr darüber in unseren Privaten und Cookie Politik lesen.